logo tempoitalia

Diretta Meteo Alofi-Niue, Isole Cookdomenica 30 agosto ore 19:00

Mappa
Sereno 24 °C Molto Nuvoloso 24 Ore: T.min 18 T.max 27
Ponente Ovest/Nord-Ovest Km/h 9.3 Punto di rugiada: 20 °C Umidità: 78% Visibilità: 10 Km
Il sole sorge alle: 07:28 Il sole tramonta alle: 19:11
30 Agosto 2026 19:00 tempo osservato: Molto Nuvoloso Molto Nuvoloso 24 78 1016 vento: Nord O/NO 9.3
30 Agosto 2026 18:30 tempo osservato: Sereno Sereno 25 73 1016 vento: Nord NO 7.4
30 Agosto 2026 18:00 tempo osservato: Nuvoloso Nuvoloso 26 69 1015 vento: Nord N/NO 9.3
30 Agosto 2026 17:30 tempo osservato: Sereno Sereno 26 73 1015 vento: Nord N/NO 9.3
30 Agosto 2026 17:00 tempo osservato: Sereno Sereno 26 69 1015 vento: Nord N 13
30 Agosto 2026 16:30 tempo osservato: Sereno Sereno 26 73 1015 vento: Nord N 14.8
30 Agosto 2026 16:00 tempo osservato: Sereno Sereno 27 65 1015 vento: Nord N/NO 13
30 Agosto 2026 15:30 tempo osservato: Sereno Sereno 27 69 1016 vento: Nord N/NO 16.7
30 Agosto 2026 15:00 tempo osservato: Sereno Sereno 26 73 1016 vento: Nord N/NO 22.2
30 Agosto 2026 14:30 tempo osservato: Sereno Sereno 27 69 1016 vento: Nord N/NO 18.5
30 Agosto 2026 14:00 tempo osservato: Sereno Sereno 26 69 1016 vento: Nord N/NO 18.5
30 Agosto 2026 13:30 tempo osservato: Sereno Sereno 27 69 1017 vento: Nord N/NO 18.5
30 Agosto 2026 13:00 tempo osservato: Sereno Sereno 27 61 1017 vento: Nord N/NO 18.5
30 Agosto 2026 12:30 tempo osservato: Sereno Sereno 26 69 1018 vento: Nord N/NO 16.7
30 Agosto 2026 12:00 tempo osservato: Sereno Sereno 26 69 1018 vento: Nord N/NO 16.7
30 Agosto 2026 11:30 tempo osservato: Sereno Sereno 26 73 1018 vento: Nord N/NO 13
30 Agosto 2026 11:00 tempo osservato: Nuvoloso Nuvoloso 25 73 1018 vento: Nord N/NE 9.3
30 Agosto 2026 10:30 tempo osservato: Sereno Sereno 26 69 1018 vento: Nord NE 11.1
30 Agosto 2026 10:00 tempo osservato: Nuvoloso Nuvoloso 25 78 1018 vento: Nord NE 11.1
30 Agosto 2026 09:30 tempo osservato: Sereno Sereno 24 83 1018 vento: Nord E/NE 9.3
30 Agosto 2026 09:00 tempo osservato: Sereno Sereno 22 94 1018 vento: Nord N 3.7
30 Agosto 2026 08:30 tempo osservato: Sereno Sereno 19 93 1018 vento: Nord N 1.8
30 Agosto 2026 08:00 tempo osservato: Sereno Sereno 18 88 1017 vento: Nord N 1.8
30 Agosto 2026 07:30 tempo osservato: Sereno Sereno 18 93 1017 vento: Nord N 1.8
30 Agosto 2026 07:00 tempo osservato: Sereno Sereno 18 93 1017 vento: Nord N 3.7
30 Agosto 2026 06:30 tempo osservato: Sereno Sereno 19 93 1016 vento: Nord N 5.5
30 Agosto 2026 06:00 tempo osservato: Sereno Sereno 20 93 1016 vento: Nord N 5.5
30 Agosto 2026 05:30 tempo osservato: Sereno Sereno 20 93 1016 vento: Nord N 3.7
30 Agosto 2026 05:00 tempo osservato: Sereno Sereno 21 94 1016 vento: Nord N 5.5
30 Agosto 2026 04:30 tempo osservato: Sereno Sereno 21 94 1016 vento: Nord N 5.5
30 Agosto 2026 04:00 tempo osservato: Sereno Sereno 21 94 1016 vento: Nord N 5.5
30 Agosto 2026 03:30 tempo osservato: Sereno Sereno 21 94 1017 vento: Nord N 5.5
30 Agosto 2026 03:00 tempo osservato: Sereno Sereno 21 94 1017 vento: Nord N 5.5
30 Agosto 2026 02:30 tempo osservato: Sereno Sereno 21 94 1017 vento: Nord N 5.5
30 Agosto 2026 02:00 tempo osservato: Sereno Sereno 21 94 1017 vento: Nord N 5.5
30 Agosto 2026 01:30 tempo osservato: Sereno Sereno 21 94 1017 vento: Nord N 5.5
30 Agosto 2026 01:00 tempo osservato: Sereno Sereno 22 88 1017 vento: Nord N 5.5
30 Agosto 2026 00:30 tempo osservato: Sereno Sereno 22 94 1018 vento: Nord N 5.5
30 Agosto 2026 00:00 tempo osservato: Sereno Sereno 22 94 1017 vento: Nord E/NE 7.4
29 Agosto 2026 23:30 tempo osservato: Sereno Sereno 22 94 1017 vento: Nord E/NE 7.4
29 Agosto 2026 23:00 tempo osservato: Sereno Sereno 22 94 1017 vento: Nord E 9.3
29 Agosto 2026 22:30 tempo osservato: Sereno Sereno 22 94 1017 vento: Nord E/NE 9.3
29 Agosto 2026 22:00 tempo osservato: Sereno Sereno 22 94 1017 vento: Nord E/NE 9.3
29 Agosto 2026 21:30 tempo osservato: Sereno Sereno 22 94 1016 vento: Nord E 7.4
29 Agosto 2026 21:00 tempo osservato: Sereno Sereno 22 94 1016 vento: Nord E/NE 7.4
29 Agosto 2026 20:30 tempo osservato: Sereno Sereno 22 94 1016 vento: Nord E/NE 9.3
29 Agosto 2026 20:00 tempo osservato: Sereno Sereno 23 83 1015 vento: Nord E 9.3